Regional Weather Roundup
Issued by NWS

Home | Current Version | Previous Version | Text Only | Print | Product List | Glossary Off
Versions: 1 2 3 4 5 6 7 8 9 10 11 12 13 14 15 16 17 18 19 20 21 22 23 24 25 26 27 28 29 30 31 32 33 34 35 36 37 38 39 40 41 42 43 44 45 46 47 48 49 50

000
ASUS43 KIND 281809
RWRIN

WEATHER ROUNDUP FOR INDIANA
NATIONAL WEATHER SERVICE INDIANAPOLIS IN
200 PM EDT MON JUL 28 2014

NOTE: "FAIR" INDICATES FEW OR NO CLOUDS BELOW 12,000 FEET WITH NO
SIGNIFICANT WEATHER AND/OR OBSTRUCTIONS TO VISIBILITY.

* - STATION DOES NOT REPORT WEATHER SUCH AS PRECIPITATION OR FOG.

+ - STATION NOT QUALITY CONTROLLED BY THE NATIONAL WEATHER SERVICE.
    USE DATA WITH CAUTION...ESPECIALLY DEWPOINT AND RELATIVE
    HUMIDITY OBSERVATIONS.

INZ001>003-010>013-019-020-281900-
NORTHWEST INDIANA

CITY           SKY/WX    TMP DP  RH WIND       PRES   REMARKS
GARY /AIRPORT/ PTSUNNY   66  50  55 N17G35    30.10R
KNOX *+        CLOUDY    60  52  73 N12G21    30.05S
LA PORTE +     CLOUDY    58  51  77 NW14G22   30.07S
6HR MIN TEMP:  57; 6HR MAX TEMP:  59;

MICHIGAN CITY+ CLOUDY    59  48  67 N10G21    30.07S
MONTICELLO +   CLOUDY    64  55  72 N12G22    30.04R
RENSSELAER +   PTSUNNY   63  55  77 N14G21    30.07S
VALPARAISO     PTSUNNY   62  51  67 N15G22    30.07F
6HR MIN TEMP:  59; 6HR MAX TEMP:  62;


$$

LMZ046-743>745-281900-
SOUTHERN LAKE MICHIGAN

STATION/POSITION TIME  TEMP WIND        PRES
                       AIR  DIR/SP/G
                 (UTC) (F)  (DEG/KT/KT) (MB)
MICHIGAN CITY    1800   59  330/ 20/ 24   N/A

$$

INZ004-005-014>016-021>024-281900-
NORTH CENTRAL INDIANA

CITY           SKY/WX    TMP DP  RH WIND       PRES   REMARKS
ELKHART        PTSUNNY   63  54  72 NW15      30.02S
GOSHEN         PTSUNNY   66  55  67 NW17      30.00S
6HR MIN TEMP:  61; 6HR MAX TEMP:  68;

LOGANSPORT +   CLOUDY    64  55  72 NW13G20   30.03S
PERU/GRISSOM   CLOUDY    66  58  76 NW16      30.02R
6HR MIN TEMP:  62; 6HR MAX TEMP:  67;

ROCHESTER +    CLOUDY    66  54  63 NW16      30.03R
SOUTH BEND     CLOUDY    61  51  70 NW16G24   30.04S
6HR MIN TEMP:  60; 6HR MAX TEMP:  63;

WARSAW +       CLOUDY    66  55  68 NW15      30.01R

$$

INZ006>009-017-018-025>027-281900-
NORTHEAST INDIANA

CITY           SKY/WX    TMP DP  RH WIND       PRES   REMARKS
ANGOLA *+      PTSUNNY   68  61  77 NW9       29.97S
AUBURN +       PTSUNNY   70  54  56 NW10G17   29.98S
FORT WAYNE     PTSUNNY   70  57  63 NW12      29.98S
6HR MIN TEMP:  64; 6HR MAX TEMP:  70;

HUNTINGTON +   CLOUDY    68  57  67 NW9       29.98S
6HR MIN TEMP:  62; 6HR MAX TEMP:  69;


$$

INZ028-029-035-036-043>045-051>053-281900-
WEST CENTRAL INDIANA

CITY           SKY/WX    TMP DP  RH WIND       PRES   REMARKS
GREENCASTLE +  PTSUNNY   70  57  64 NW9G16    30.04S
LAFAYETTE      PTSUNNY   69  55  60 N18       30.04R
6HR MIN TEMP:  61; 6HR MAX TEMP:  70;

TERRE HAUTE    MOSUNNY   71  57  61 NW9       30.04R
6HR MIN TEMP:  63; 6HR MAX TEMP:  74;


$$

INZ030>032-037>040-046>048-054>057-064-065-281900-
CENTRAL INDIANA

CITY           SKY/WX    TMP DP  RH WIND       PRES   REMARKS
ANDERSON       PTSUNNY   68  55  64 NW12G23   30.01S
CP ATTERBURY + CLOUDY    68  57  68 N9        30.02S
COLUMBUS       CLOUDY    66  59  77 NW8       30.02R
INDIANAPOLIS   CLOUDY    68  57  68 NW12      30.01S
6HR MIN TEMP:  63; 6HR MAX TEMP:  69;

-EAGLE CREEK   CLOUDY    68  57  68 NW10      30.02R
6HR MIN TEMP:  63; 6HR MAX TEMP:  68;

KOKOMO *+      CLOUDY    66  55  68 NW15      30.02R
MARION +       PTSUNNY   68  56  65 NW10G18   30.00S
MT COMFORT *+  PTSUNNY   70  64  83 NW10      30.01S
SHELBYVILLE    CLOUDY    70  58  65 W12       30.00F
6HR MIN TEMP:  65; 6HR MAX TEMP:  71;

ZIONSVILLE +   CLOUDY    69  56  63 N13       30.03S
6HR MIN TEMP:  62; 6HR MAX TEMP:  70;


$$

INZ033-034-041-042-049-050-058-059-281900-
EAST CENTRAL INDIANA

CITY           SKY/WX    TMP DP  RH WIND       PRES   REMARKS
MUNCIE         PTSUNNY   71  58  63 NW12G20   29.99S
6HR MIN TEMP:  62; 6HR MAX TEMP:  71;


$$

INZ060-061-067>069-081>083-085>088-281900-
SOUTHWEST INDIANA

CITY           SKY/WX    TMP DP  RH WIND       PRES   REMARKS
EVANSVILLE     MOSUNNY   77  58  51 NW12G20   30.04F
6HR MIN TEMP:  66; 6HR MAX TEMP:  77;

WASHINGTON +   PTSUNNY   74  63  69 W9        30.03S
6HR MIN TEMP:  64; 6HR MAX TEMP:  74;


$$

INZ062-063-066-070>080-084-089>092-281900-
SOUTH CENTRAL AND SOUTHEAST INDIANA

CITY           SKY/WX    TMP DP  RH WIND       PRES   REMARKS
BLOOMINGTON    CLOUDY    71  58  63 NW7       30.03R
6HR MIN TEMP:  63; 6HR MAX TEMP:  72;


$$




USA.gov is the U.S. government's official web portal to all federal, state and local government web resources and services.